P05 - Terminal do Papicu - Rua Pereira de Miranda , n� 187, Bairro Papicu;;;;;;;;;;;;;;;
M�S  ;�xido de Enxofre;�xido N�trico;Di�xido de Nitrog�nio;�xidos de Nitrog�nio;Oz�nio;Material Particulado <10�m;Material Particulado <2,5�m;Mon�xido de carbono;VelVento (m/s);DirVento (�);T-PM10 (�C);UR (%);Press (mbar);RadSol (W/m�);Chuva
jan/23;SO2 (�g/m�);NO (�g/m�);NO2 (�g/m�);NOx (�g/m�);O3 (�g/m�);MP10 (�g/m�);MP2,5 (�g/m�);CO (ppm);;;;;;;
01/01/2023 00:00;13,21;20,51;14,93;46,36;23,52;31;11;0,4;3,33;238,51;27,80;79,70;1006,80;0,00;0,00
01/01/2023 01:00;12,37;5,54;4,64;13,12;26,54;24;19;0,4;3,39;236,54;27,70;79,20;1006,10;0,00;0,00
01/01/2023 02:00;11,51;2,92;5,60;10,06;27,19;33;9;0,4;3,37;237,15;27,60;77,80;1005,40;0,00;0,00
01/01/2023 03:00;10,28;1,96;4,93;7,93;26,91;23;15;0,4;3,46;239,43;27,50;79,60;1005,00;0,00;0,00
01/01/2023 04:00;10,62;1,30;3,83;5,83;29,91;27;9;0,4;4,11;238,61;27,50;80,10;1005,00;0,00;0,00
01/01/2023 05:00;12,19;3,47;5,40;10,73;29,35;30;7;0,3;3,87;237,74;27,50;78,00;1005,30;0,00;0,00
01/01/2023 06:00;11,72;19,82;9,47;39,87;25,05;27;11;0,4;3,60;238,59;27,50;77,90;1005,90;14,00;0,00
01/01/2023 07:00;11,56;39,06;16,07;75,93;23,34;25;12;0,4;3,85;239,21;27,80;76,80;1006,40;141,00;0,00
01/01/2023 08:00;12,50;34,11;13,38;65,74;23,66;26;10;0,4;4,07;238,63;28,40;74,00;1006,90;348,00;0,00
01/01/2023 09:00;13,39;37,76;15,77;73,80;23,66;26;11;0,4;4,10;237,84;29,00;71,50;1007,30;518,00;0,00
01/01/2023 10:00;13,68;24,61;11,99;49,72;24,01;25;9;0,4;4,22;240,33;29,30;71,20;1007,20;719,00;0,00
01/01/2023 11:00;13,70;25,55;13,27;52,41;24,40;20;9;0,4;4,34;237,79;29,50;69,10;1006,70;939,00;0,00
01/01/2023 12:00;13,57;25,39;10,98;49,91;23,36;24;9;0,4;4,22;232,82;29,50;70,20;1006,40;909,00;0,00
01/01/2023 13:00;14,72;39,55;14,87;75,51;24,89;25;9;0,4;4,25;236,77;29,70;70,70;1006,00;727,00;0,00
01/01/2023 14:00;14,20;36,68;15,68;71,90;24,87;26;10;0,4;4,09;236,94;29,60;69,90;1005,40;729,00;0,00
01/01/2023 15:00;14,83;29,26;14,42;59,23;23,87;27;7;0,4;4,21;240,43;29,40;71,80;1005,00;488,00;0,00
01/01/2023 16:00;14,72;30,82;14,49;61,75;22,38;19;10;0,4;3,59;240,77;29,20;73,50;1004,90;284,00;0,00
01/01/2023 17:00;13,70;26,43;13,35;53,88;21,01;27;7;0,4;2,98;228,21;28,90;75,10;1005,10;117,00;0,00
01/01/2023 18:00;10,23;32,92;15,19;65,66;20,87;21;3;0,5;3,16;219,18;28,40;78,50;1006,20;14,00;0,00
01/01/2023 19:00;9,78;24,21;17,69;54,84;22,24;24;6;0,5;2,81;212,65;28,10;80,30;1007,20;1,00;0,00
01/01/2023 20:00;10,23;26,20;17,46;57,64;20,48;24;8;0,5;2,65;213,70;28,00;82,10;1007,70;0,00;0,00
01/01/2023 21:00;11,40;46,10;;86,00;17,71;20;11;0,5;2,89;213,35;28,00;81,60;1008,30;0,00;0,00
01/01/2023 22:00;11,17;31,01;12,91;60,47;15,99;19;9;0,5;2,34;220,24;28,00;80,50;1008,40;0,00;0,00
01/01/2023 23:00;10,67;20,74;10,49;42,32;16,79;22;6;0,5;2,35;219,26;27,90;80,80;1008,40;0,00;0,00
02/01/2023 00:00;10,67;14,97;9,23;32,18;18,48;21;13;0,5;2,98;214,33;27,70;82,30;1007,90;0,00;0,00
02/01/2023 01:00;11,06;4,74;4,74;12,03;22,66;21;8;0,3;2,72;219,82;27,60;83,10;1007,20;0,00;0,00
02/01/2023 02:00;11,12;1,47;3,33;5,58;23,09;24;6;0,3;1,83;222,27;27,40;85,40;1006,60;0,00;0,00
02/01/2023 03:00;12,34;1,26;3,31;5,23;25,19;19;6;0,3;2,02;228,29;27,40;82,80;1006,20;0,00;0,00
02/01/2023 04:00;13,18;0,96;2,69;4,15;26,19;23;8;0,3;2,24;232,76;27,40;82,50;1006,00;0,00;0,00
02/01/2023 05:00;13,50;11,16;6,97;24,08;27,01;20;9;0,3;2,66;239,62;27,40;82,40;1006,10;0,00;0,00
02/01/2023 06:00;14,88;63,11;17,26;114,03;16,56;21;11;0,4;2,37;238,48;27,60;82,50;1006,80;4,00;0,00
02/01/2023 07:00;16,14;142,56;26,45;244,89;10,93;32;15;0,5;2,53;241,98;28,00;80,80;1007,40;66,00;0,00
02/01/2023 08:00;13,99;121,19;28,74;214,53;13,53;35;14;0,4;3,47;240,08;28,50;78,40;1008,00;269,00;0,00
02/01/2023 09:00;11,72;101,32;26,62;181,95;18,42;38;10;0,4;3,58;231,88;29,10;75,60;1008,40;486,00;0,00
02/01/2023 10:00;9,36;87,61;26,64;160,97;19,05;36;13;0,4;3,62;232,90;29,40;75,30;1008,50;564,00;0,00
02/01/2023 11:00;7,66;46,00;19,93;90,44;27,72;44;16;0,3;3,75;234,37;29,60;72,70;1008,30;756,00;0,00
02/01/2023 12:00;7,35;;;;29,01;39;12;0,3;3,62;228,86;30,10;70,40;1008,00;867,00;0,00
02/01/2023 13:00;5,73;;;;27,60;46;15;0,3;3,79;232,71;30,10;70,90;1007,40;738,00;0,00
02/01/2023 14:00;3,53;;;;29,60;38;14;0,3;3,91;222,67;29,80;71,70;1006,50;689,00;0,00
02/01/2023 15:00;3,16;;;;27,36;44;13;0,3;3,47;228,87;29,90;70,90;1005,90;553,00;0,00
02/01/2023 16:00;3,71;;;;26,99;47;16;0,5;3,87;221,59;29,50;74,20;1005,90;298,00;0,00
02/01/2023 17:00;6,04;;;;17,18;41;11;0,5;3,56;223,56;29,30;76,20;1006,00;120,00;0,00
02/01/2023 18:00;9,08;85,60;27,56;158,75;15,89;51;17;0,6;3,40;223,20;29,00;77,60;1006,30;20,00;0,00
02/01/2023 19:00;10,15;107,38;31,54;196,18;14,54;47;14;0,6;3,24;222,45;28,70;78,30;1006,90;0,00;0,00
02/01/2023 20:00;11,59;81,85;26,52;152,02;12,28;46;19;0,6;2,87;221,86;28,60;80,10;1007,50;0,00;0,00
02/01/2023 21:00;11,06;63,31;23,22;120,27;15,67;39;14;0,5;2,69;227,40;28,60;80,40;1008,30;0,00;0,00
02/01/2023 22:00;13,00;40,84;19,53;82,17;18,44;41;13;0,5;3,06;220,02;28,30;81,70;1008,30;0,00;0,00
02/01/2023 23:00;12,74;29,71;16,47;62,00;21,28;42;15;0,5;2,44;227,39;28,20;82,00;1007,90;0,00;0,00
03/01/2023 00:00;12,37;22,42;15,98;50,38;27,46;41;11;0,4;2,51;229,52;28,00;80,90;1007,20;0,00;0,00
03/01/2023 01:00;12,66;4,23;6,45;12,93;33,74;34;17;0,4;2,95;238,19;27,80;82,40;1006,50;0,00;0,00
03/01/2023 02:00;13,73;1,23;3,95;5,83;36,70;35;12;0,4;2,30;233,15;27,70;81,60;1006,10;0,00;0,00
03/01/2023 03:00;13,76;1,05;3,21;4,83;35,56;39;12;0,4;2,65;215,64;27,60;82,80;1005,50;0,00;0,00
03/01/2023 04:00;12,87;0,71;2,33;3,42;39,35;37;15;0,4;3,26;236,82;27,60;82,50;1005,90;0,00;0,00
03/01/2023 05:00;12,71;9,01;6,62;20,40;38,82;40;11;0,4;2,81;237,01;27,60;81,70;1005,90;0,00;0,00
03/01/2023 06:00;14,54;50,74;24,29;102,08;25,54;48;15;0,5;3,06;236,58;27,60;82,30;1006,10;1,00;0,00
03/01/2023 07:00;13,97;96,69;30,13;178,62;21,36;53;15;0,5;3,70;236,71;28,00;80,20;1006,90;76,00;0,00
03/01/2023 08:00;13,52;93,27;27,15;170,03;20,56;49;20;0,5;3,97;238,28;28,60;76,70;1008,20;277,00;0,00
03/01/2023 09:00;12,19;83,86;28,99;157,61;22,83;46;18;0,5;4,30;239,56;29,20;73,30;1009,10;477,00;0,00
03/01/2023 10:00;7,98;;;;21,50;42;17;0,5;4,40;238,93;29,50;71,80;1009,00;546,00;0,00
03/01/2023 11:00;6,62;42,68;20,68;86,12;24,56;42;17;0,5;3,70;245,90;29,80;70,50;1009,40;595,00;0,00
03/01/2023 12:00;8,34;39,35;18,63;78,97;26,93;41;14;0,5;4,49;233,04;29,90;70,10;1009,60;681,00;0,00
03/01/2023 13:00;8,50;37,34;13,97;71,19;26,21;42;18;0,5;4,25;241,82;30,00;70,20;1009,30;549,00;0,00
03/01/2023 14:00;9,21;40,18;18,22;79,82;25,46;39;13;0,5;4,00;233,56;29,90;70,70;1008,20;522,00;0,00
03/01/2023 15:00;9,42;37,29;16,98;74,16;27,70;37;12;0,5;4,00;240,66;29,50;73,30;1007,30;317,00;0,00
03/01/2023 16:00;11,01;60,26;23,39;115,80;24,76;38;19;0,5;4,03;242,45;29,30;74,90;1006,80;216,00;0,00
03/01/2023 17:00;12,37;74,04;25,23;138,68;18,71;43;20;0,6;3,34;225,82;29,00;77,00;1006,90;55,00;0,00
03/01/2023 18:00;13,81;68,84;24,98;130,42;19,26;52;19;0,6;3,53;216,00;28,60;77,20;1006,90;4,00;0,00
03/01/2023 19:00;14,38;52,18;23,40;103,43;22,83;44;16;0,6;3,55;217,33;28,40;78,60;1007,10;0,00;0,00
03/01/2023 20:00;16,19;77,67;24,55;143,64;15,85;52;20;0,6;2,95;236,02;28,40;78,60;1007,80;0,00;0,00
03/01/2023 21:00;17,16;88,61;28,69;164,52;16,44;51;19;0,6;2,75;231,80;28,40;78,50;1008,60;0,00;0,00
03/01/2023 22:00;17,18;46,80;20,92;92,66;21,36;46;14;0,5;2,59;233,80;28,30;79,40;1008,80;0,00;0,00
03/01/2023 23:00;16,87;22,21;13,42;47,54;25,79;38;16;0,4;3,29;230,48;28,10;80,10;1008,60;0,00;0,00
04/01/2023 00:00;17,76;15,09;8,14;31,28;32,17;39;10;0,4;4,07;239,76;27,90;79,90;1008,00;0,00;0,00
04/01/2023 01:00;15,30;3,94;4,57;10,60;38,27;36;17;0,4;3,96;237,93;27,70;79,60;1007,30;0,00;0,00
04/01/2023 02:00;13,94;1,12;2,44;4,15;39,41;29;16;0,4;3,64;238,44;27,60;80,30;1006,60;0,00;0,00
04/01/2023 03:00;14,67;0,76;2,35;3,52;38,98;32;12;0,4;4,18;237,36;27,50;78,70;1006,10;0,00;0,00
04/01/2023 04:00;15,43;0,63;2,05;3,01;40,76;32;13;0,4;3,67;241,25;27,50;78,70;1005,80;0,00;0,00
04/01/2023 05:00;15,54;7,47;5,53;16,98;37,72;38;15;0,4;3,29;241,02;27,50;78,50;1006,00;0,00;0,00
04/01/2023 06:00;15,59;51,38;22,48;101,31;26,23;34;14;0,5;3,11;246,18;27,60;78,30;1006,60;4,00;0,00
04/01/2023 07:00;17,13;106,64;24,83;188,30;18,34;54;18;0,5;3,32;239,05;28,10;75,50;1007,50;83,00;0,00
04/01/2023 08:00;15,98;90,02;25,27;163,30;20,28;49;14;0,5;3,55;242,77;28,60;72,00;1008,40;299,00;0,00
04/01/2023 09:00;15,38;76,11;28,69;145,54;23,19;44;17;0,5;3,56;243,12;29,40;68,20;1009,20;508,00;0,00
04/01/2023 10:00;14,93;60,58;24,36;117,42;26,29;47;12;0,4;3,80;242,31;29,60;69,30;1009,60;492,00;0,00
04/01/2023 11:00;12,58;32,87;18,18;68,54;31,86;41;14;0,4;4,62;236,41;29,60;69,30;1009,60;682,00;0,00
04/01/2023 12:00;11,19;34,55;17,75;70,68;30,38;37;9;0,4;4,88;236,23;29,70;66,60;1009,30;797,00;0,00
04/01/2023 13:00;10,25;35,11;17,16;71,04;28,01;39;7;0,4;4,75;240,39;29,90;66,40;1009,10;581,00;0,00
04/01/2023 14:00;9,28;29,71;16,99;62,54;28,48;41;12;0,4;4,37;239,76;29,80;68,20;1007,90;579,00;0,00
04/01/2023 15:00;9,36;29,34;16,19;61,23;27,48;39;12;0,4;4,51;238,75;29,50;70,20;1006,60;416,00;0,00
04/01/2023 16:00;10,28;62,29;24,70;120,20;24,52;42;12;0,4;3,83;237,99;29,40;73,70;1006,40;358,00;0,00
04/01/2023 17:00;9,34;;;;19,52;32;16;0,5;3,85;216,87;29,00;74,40;1006,90;121,00;0,00
04/01/2023 18:00;11,01;52,73;20,11;100,95;21,44;43;15;0,6;4,25;208,74;28,40;78,30;1006,60;4,00;0,00
04/01/2023 19:00;14,31;68,86;18,05;123,62;18,18;43;16;0,5;3,96;211,88;28,20;78,50;1006,60;0,00;0,00
04/01/2023 20:00;14,99;52,98;17,52;98,75;17,99;43;14;0,5;3,96;211,49;28,20;77,90;1007,20;0,00;0,00
04/01/2023 21:00;15,30;61,42;21,39;115,59;16,89;38;10;0,5;3,58;210,42;28,20;78,20;1007,90;0,00;0,00
04/01/2023 22:00;15,27;44,28;19,21;87,13;22,01;38;12;0,4;3,43;212,78;28,10;78,80;1008,20;0,00;0,00
04/01/2023 23:00;16,56;19,63;13,12;43,26;26,50;38;15;0,4;3,29;215,93;27,90;79,40;1008,30;0,00;0,00
05/01/2023 00:00;17,13;14,77;7,90;30,55;29,70;40;14;0,4;3,24;214,16;27,80;79,90;1007,70;0,00;0,00
05/01/2023 01:00;13,18;2,17;3,83;7,16;35,43;38;15;0,3;3,00;213,23;27,50;79,70;1007,00;0,00;0,00
05/01/2023 02:00;11,56;1,08;3,20;4,85;34,98;35;12;0,3;2,56;225,75;27,40;80,40;1006,60;0,00;0,00
05/01/2023 03:00;11,59;0,98;2,03;3,55;38,41;29;21;0,3;2,37;232,51;27,40;78,70;1006,10;0,00;0,00
05/01/2023 04:00;11,12;0,63;1,96;2,93;38,33;27;14;0,3;2,67;232,06;27,30;78,30;1006,00;0,00;0,00
05/01/2023 05:00;11,82;7,79;4,83;16,77;35,25;28;15;0,3;2,62;238,05;27,40;78,70;1006,40;0,00;0,00
05/01/2023 06:00;13,21;44,27;15,98;83,88;27,66;34;8;0,3;3,35;237,15;27,50;78,90;1007,30;2,00;0,00
05/01/2023 07:00;13,70;84,29;24,14;153,38;20,54;36;15;0,4;3,61;236,84;28,00;74,90;1008,10;111,00;0,00
05/01/2023 08:00;12,00;86,60;33,80;166,57;18,79;41;16;0,4;3,64;235,12;28,80;70,20;1008,80;355,00;0,00
05/01/2023 09:00;11,93;80,95;22,93;147,04;19,28;44;11;0,3;4,11;235,63;29,40;67,40;1009,50;522,00;0,00
05/01/2023 10:00;10,30;63,22;19,85;116,89;24,36;33;9;0,3;4,30;238,41;29,40;67,30;1009,70;651,00;0,00
05/01/2023 11:00;7,01;40,72;17,20;79,61;28,07;31;4;0,3;3,99;227,50;29,60;68,70;1010,00;899,00;0,00
05/01/2023 12:00;3,22;;;;23,58;36;7;0,4;3,85;236,83;29,70;68,40;1010,00;950,00;0,00
05/01/2023 13:00;3,69;40,20;17,22;78,86;26,17;30;13;0,4;3,99;240,10;29,80;67,70;1009,10;610,00;0,00
05/01/2023 14:00;9,83;41,98;19,10;83,45;26,72;31;8;0,4;3,92;241,68;29,70;68,30;1007,80;629,00;0,00
05/01/2023 15:00;10,57;31,31;11,79;59,82;28,95;33;6;0,4;3,82;245,54;29,50;70,00;1006,60;501,00;0,00
05/01/2023 16:00;9,62;56,91;18,67;105,89;22,91;34;10;0,5;3,97;242,57;29,40;70,20;1006,50;380,00;0,00
05/01/2023 17:00;10,02;73,88;24,64;138,02;16,63;36;12;0,5;3,37;227,29;29,20;71,40;1006,50;173,00;0,00
05/01/2023 18:00;11,01;89,33;26,56;163,53;14,57;39;12;0,5;2,66;230,59;28,70;75,00;1006,60;13,00;0,00
05/01/2023 19:00;10,12;69,48;22,82;129,39;14,52;45;12;0,5;3,20;209,35;28,20;77,50;1006,60;0,00;0,00
05/01/2023 20:00;10,57;71,81;21,22;131,33;15,10;35;17;0,5;3,02;210,75;28,10;77,80;1007,50;0,00;0,00
05/01/2023 21:00;10,30;50,12;17,33;94,16;19,50;40;15;0,4;3,27;209,20;27,90;79,00;1008,10;0,00;0,00
05/01/2023 22:00;10,78;31,03;15,51;63,09;22,13;30;14;0,4;3,42;208,09;27,80;78,90;1008,50;0,00;0,00
05/01/2023 23:00;9,89;23,82;9,27;45,79;20,28;30;18;0,4;3,02;208,91;27,70;79,10;1008,80;0,00;0,00
06/01/2023 00:00;9,23;11,35;10,28;27,65;23,93;34;11;0,4;2,79;213,10;27,60;78,50;1009,60;0,00;0,00
06/01/2023 01:00;9,21;5,04;7,29;15,02;27,70;33;15;0,4;2,75;212,03;27,50;79,00;1009,50;0,00;0,00
06/01/2023 02:00;8,94;2,17;1,22;4,55;31,91;33;8;0,4;2,60;221,05;27,40;79,20;1007,80;0,00;0,00
06/01/2023 03:00;8,87;1,04;2,82;4,42;31,31;30;7;0,4;1,85;233,78;27,40;79,30;1007,60;0,00;0,00
06/01/2023 04:00;9,21;2,33;3,12;6,69;33,27;30;11;0,4;1,73;228,09;27,30;79,20;1008,00;0,00;0,00
06/01/2023 05:00;8,58;8,80;6,62;20,11;31,70;32;17;0,4;2,19;237,28;27,30;79,30;1008,00;0,00;0,00
06/01/2023 06:00;9,15;55,06;20,06;104,48;20,68;38;13;0,4;2,33;236,25;27,40;78,50;1008,30;7,00;0,00
06/01/2023 07:00;10,44;87,65;24,78;159,19;17,22;48;17;0,5;3,10;238,34;27,90;76,20;1009,30;131,00;0,00
06/01/2023 08:00;10,88;95,06;25,40;171,22;16,67;51;12;0,5;3,44;235,62;28,50;72,60;1010,80;303,00;0,00
06/01/2023 09:00;10,44;89,95;23,67;161,59;18,28;49;15;0,5;3,57;240,96;29,20;69,80;1009,50;531,00;0,00
06/01/2023 10:00;10,36;62,54;18,29;114,22;21,48;42;10;0,4;3,90;235,86;29,40;67,90;1009,70;544,00;0,00
06/01/2023 11:00;9,65;43,31;18,35;84,80;26,87;34;15;0,4;3,60;238,86;29,20;69,30;1009,70;521,00;0,00
06/01/2023 12:00;10,75;35,06;14,51;68,28;26,32;38;9;0,4;3,53;242,67;29,40;68,50;1009,20;562,00;0,00
06/01/2023 13:00;10,54;42,81;17,41;83,05;24,26;35;16;0,4;4,09;239,69;29,40;67,20;1008,90;503,00;0,00
06/01/2023 14:00;10,36;36,03;15,81;71,06;24,44;37;10;0,4;3,73;235,81;29,40;67,50;1009,70;524,00;0,00
06/01/2023 15:00;10,23;36,26;16,81;72,39;25,25;32;9;0,4;3,89;233,75;29,50;67,10;1009,10;556,00;0,00
06/01/2023 16:00;13,31;49,65;13,67;89,80;19,98;;;0,5;;;28,40;;;;
06/01/2023 17:00;13,44;62,87;17,93;114,33;18,11;34;20;0,6;;;27,70;;;;
06/01/2023 18:00;15,82;87,58;23,54;157,83;15,49;47;14;0,6;;;27,00;;;;
06/01/2023 19:00;15,20;85,26;26,07;156,80;14,42;45;18;0,6;2,70;214,86;28,20;77,60;1010,10;0,00;0,00
06/01/2023 20:00;15,17;58,22;21,00;110,27;18,62;40;18;0,6;3,41;206,34;27,90;79,10;1010,80;0,00;0,00
06/01/2023 21:00;14,67;58,57;19,14;108,92;17,63;39;13;0,6;2,69;212,94;27,80;80,80;1011,70;0,00;0,00
06/01/2023 22:00;15,38;41,88;20,53;84,74;19,75;38;13;0,6;2,94;218,80;27,80;80,30;1012,40;0,00;0,00
06/01/2023 23:00;15,43;26,43;15,15;55,68;22,77;40;15;0,6;2,60;223,45;27,80;79,40;1012,40;0,00;0,00
07/01/2023 00:00;15,22;13,71;12,73;33,74;28,54;27;13;0,6;2,92;217,68;27,60;80,30;1012,50;0,00;0,00
07/01/2023 01:00;13,63;3,73;6,30;11,99;33,29;32;8;0,4;2,46;226,57;27,50;80,50;1011,80;0,00;0,00
07/01/2023 02:00;12,16;1,86;4,06;6,92;34,56;33;11;0,4;2,74;228,15;27,40;78,00;1011,50;0,00;0,00
07/01/2023 03:00;12,82;0,76;3,35;4,51;37,45;34;10;0,4;2,34;229,67;27,30;78,40;1010,50;0,00;0,00
07/01/2023 04:00;12,97;1,25;3,06;4,98;40,25;34;10;0,4;2,85;238,67;27,30;77,60;1010,20;0,00;0,00
07/01/2023 05:00;13,73;7,00;5,34;16,07;36,29;32;11;0,4;2,54;234,06;27,30;77,30;1010,90;0,00;0,00
07/01/2023 06:00;13,89;41,72;16,98;80,95;25,78;38;11;0,4;2,75;240,15;27,40;76,50;1011,90;4,00;0,00
07/01/2023 07:00;13,81;57,20;23,05;110,74;20,13;44;10;0,5;2,14;249,56;28,00;74,70;1012,50;131,00;0,00
07/01/2023 08:00;14,31;38,83;19,16;78,67;28,17;38;6;0,5;3,07;246,52;28,50;72,00;1013,20;321,00;0,00
07/01/2023 09:00;13,00;37,77;18,46;76,38;29,54;36;9;0,5;3,16;250,31;29,20;68,10;1013,20;497,00;0,00
07/01/2023 10:00;13,13;41,08;15,92;78,94;30,42;34;16;0,5;3,38;248,52;29,60;66,10;1013,50;613,00;0,00
07/01/2023 11:00;13,34;38,96;16,99;76,74;30,37;39;13;0,5;3,70;238,11;29,30;69,50;1013,20;681,00;0,00
07/01/2023 12:00;13,44;30,98;17,13;64,69;35,31;36;14;0,5;4,19;239,89;29,40;69,20;1012,60;883,00;0,00
07/01/2023 13:00;13,23;42,64;17,99;83,35;31,17;33;9;0,5;4,07;240,62;29,50;68,90;1011,80;705,00;0,00
07/01/2023 14:00;14,02;41,02;15,32;78,24;31,01;39;10;0,5;4,23;233,20;29,50;68,00;1010,70;635,00;0,00
07/01/2023 15:00;13,86;35,06;18,05;71,75;32,62;41;13;0,5;3,95;236,40;29,40;69,60;1009,60;496,00;0,00
07/01/2023 16:00;13,55;33,51;14,79;66,17;30,50;41;9;0,5;3,87;239,73;29,30;69,20;1009,90;444,00;0,00
07/01/2023 17:00;14,04;40,21;18,87;80,55;25,01;44;13;0,5;3,28;234,78;29,20;68,70;1009,80;238,00;0,00
07/01/2023 18:00;14,33;41,89;21,88;86,06;25,23;39;19;0,5;3,45;213,41;28,60;72,80;1009,90;26,00;0,00
07/01/2023 19:00;13,81;32,56;18,08;68,01;26,19;38;14;0,5;3,41;210,29;28,30;76,50;1010,10;0,00;0,00
07/01/2023 20:00;13,57;47,81;23,16;96,47;25,19;40;20;0,5;3,64;211,73;28,20;78,90;1010,20;0,00;0,00
07/01/2023 21:00;13,68;30,26;21,64;68,03;26,40;42;15;0,5;3,54;213,96;28,00;80,70;1010,90;0,00;0,00
07/01/2023 22:00;13,10;26,98;15,60;57,00;25,72;35;15;0,5;3,17;208,20;27,90;80,80;1011,20;0,00;0,00
07/01/2023 23:00;13,55;23,70;15,68;52,13;26,81;35;14;0,5;3,38;207,74;27,90;80,50;1011,90;0,00;0,00
08/01/2023 00:00;13,73;13,39;12,05;32,58;29,89;38;14;0,5;2,80;210,72;27,80;80,10;1009,30;0,00;0,00
08/01/2023 01:00;11,19;8,29;6,49;19,19;34,76;43;12;0,4;3,51;209,80;27,60;80,80;1009,00;0,00;0,00
08/01/2023 02:00;10,20;1,31;2,93;4,94;38,78;37;14;0,4;2,52;219,99;27,50;81,10;1008,10;0,00;0,00
08/01/2023 03:00;10,57;1,40;3,06;5,21;39,76;33;16;0,4;2,46;228,99;27,50;80,80;1007,80;0,00;0,00
08/01/2023 04:00;10,59;0,70;2,89;3,99;40,55;32;18;0,4;2,79;239,49;27,40;80,60;1007,90;0,00;0,00
08/01/2023 05:00;9,99;2,78;4,59;8,85;40,72;32;7;0,4;2,99;237,80;27,40;79,70;1007,90;0,00;0,00
08/01/2023 06:00;10,96;18,59;11,35;39,85;34,58;38;12;0,4;3,48;238,50;27,50;79,40;1008,50;8,00;0,00
08/01/2023 07:00;10,54;24,73;15,66;53,58;30,62;42;11;0,4;3,39;240,79;27,80;77,90;1009,30;134,00;0,00
08/01/2023 08:00;10,96;21,48;11,50;44,40;33,76;33;8;0,4;3,95;238,16;28,30;75,40;1009,80;311,00;0,00
08/01/2023 09:00;10,75;19,91;14,93;45,47;34,84;34;9;0,4;3,67;240,08;28,70;73,00;1010,40;431,00;0,00
08/01/2023 10:00;10,41;16,00;11,32;35,81;34,19;28;17;0,4;3,87;236,16;29,10;71,70;1010,30;587,00;0,00
08/01/2023 11:00;9,10;13,03;9,74;29,72;35,41;29;11;0,4;3,96;223,92;29,50;70,80;1010,20;624,00;0,00
08/01/2023 12:00;9,60;18,29;10,77;38,82;34,17;32;11;0,4;4,03;223,66;29,70;70,10;1009,80;626,00;0,00
08/01/2023 13:00;10,23;18,79;10,81;39,59;37,41;33;14;0,4;3,56;231,10;29,70;70,10;1009,30;511,00;0,00
08/01/2023 14:00;9,78;19,80;11,07;41,43;34,37;35;13;0,4;4,09;216,41;29,40;72,70;1008,50;441,00;0,00
08/01/2023 15:00;10,41;19,11;9,57;38,88;29,23;33;12;0,4;3,96;222,64;29,20;73,60;1007,50;397,00;0,00
08/01/2023 16:00;9,96;28,42;10,64;54,21;27,99;35;16;0,4;3,29;234,72;29,10;75,00;1007,30;193,00;0,00
08/01/2023 17:00;11,25;29,34;17,29;62,28;27,21;41;15;0,4;3,11;222,19;28,90;76,30;1007,20;98,00;0,00
08/01/2023 18:00;10,70;32,73;17,01;67,17;25,50;37;15;0,4;3,55;214,02;28,50;78,50;1007,60;12,00;0,00
08/01/2023 19:00;11,09;28,47;16,77;60,42;24,05;41;20;0,5;3,47;211,68;28,20;80,10;1008,00;0,00;0,00
08/01/2023 20:00;11,74;29,80;16,43;62,11;23,85;34;11;0,4;3,07;221,68;28,10;80,10;1008,60;0,00;0,00
08/01/2023 21:00;10,72;25,35;15,79;54,68;24,91;35;12;0,4;3,02;217,12;28,10;80,40;1009,20;0,00;0,00
08/01/2023 22:00;10,78;18,94;13,55;42,60;26,56;33;14;0,4;3,11;214,95;28,00;80,50;1009,50;0,00;0,00
08/01/2023 23:00;11,12;23,94;11,50;48,22;25,27;34;18;0,4;2,60;217,67;28,00;80,50;1009,70;0,00;0,00
09/01/2023 00:00;10,98;22,98;11,71;46,96;28,44;34;11;0,4;3,29;212,67;27,80;80,50;1009,40;0,00;0,00
09/01/2023 01:00;12,82;3,02;4,83;9,46;33,56;35;11;0,4;3,66;210,92;27,70;80,80;1008,80;0,00;0,00
09/01/2023 02:00;13,50;1,07;2,18;3,82;35,86;36;18;0,4;3,40;209,95;27,50;81,50;1008,40;0,00;0,00
09/01/2023 03:00;13,39;0,66;2,09;3,10;35,88;35;12;0,4;3,14;216,46;27,40;81,30;1008,30;0,00;0,00
09/01/2023 04:00;13,63;0,23;1,80;2,16;36,37;33;13;0,4;2,70;216,87;27,40;80,70;1008,10;0,00;0,00
09/01/2023 05:00;13,70;3,19;3,85;8,76;35,39;33;12;0,4;3,22;215,90;27,40;79,20;1008,20;0,00;0,00
09/01/2023 06:00;13,34;52,67;18,84;99,61;24,28;42;14;0,4;3,11;212,85;27,60;78,20;1008,70;7,00;0,00
09/01/2023 07:00;14,72;100,40;25,08;179,04;16,03;43;15;0,5;2,73;225,32;27,90;76,90;1009,10;92,00;0,00
09/01/2023 08:00;15,72;102,53;25,96;183,14;15,97;46;13;0,5;3,05;226,37;28,50;73,70;1009,60;299,00;0,00
09/01/2023 09:00;14,93;74,55;21,11;135,37;18,58;39;17;0,5;3,47;226,06;29,00;70,20;1009,90;428,00;0,00
09/01/2023 10:00;13,99;55,78;19,85;105,38;21,09;42;16;0,5;3,92;235,27;29,20;69,80;1010,00;498,00;0,00
09/01/2023 11:00;14,07;44,25;18,16;85,70;25,05;36;14;0,4;3,95;219,95;29,60;66,30;1009,50;722,00;0,00
09/01/2023 12:00;14,20;35,77;15,34;70,19;26,32;38;8;0,4;4,04;221,35;29,60;67,30;1009,10;720,00;0,00
09/01/2023 13:00;14,44;37,93;16,79;74,91;27,68;41;12;0,5;3,78;230,79;29,80;67,90;1008,90;530,00;0,00
09/01/2023 14:00;14,33;37,12;13,89;70,83;25,36;38;14;0,4;4,21;223,21;29,60;68,50;1008,10;613,00;0,00
09/01/2023 15:00;14,02;29,15;13,63;58,35;27,01;36;10;0,5;4,32;216,69;29,60;68,90;1007,60;511,00;0,00
09/01/2023 16:00;14,20;49,87;17,50;93,94;22,81;36;18;0,5;4,50;211,72;29,50;70,80;1007,40;362,00;0,00
09/01/2023 17:00;14,07;59,96;22,63;114,46;18,73;37;20;0,5;4,39;211,47;29,20;72,80;1008,10;153,00;0,00
09/01/2023 18:00;15,51;64,44;20,25;119,11;16,16;41;15;0,5;4,44;206,16;28,60;75,00;1008,00;11,00;0,00
09/01/2023 19:00;15,95;59,45;18,59;109,73;17,22;38;12;0,5;4,14;204,38;28,30;76,90;1008,20;0,00;0,00
09/01/2023 20:00;16,06;46,73;16,86;88,52;18,79;40;21;0,5;3,77;207,08;28,20;77,80;1008,70;0,00;0,00
09/01/2023 21:00;15,82;48,51;18,84;93,22;18,81;35;11;0,5;3,60;209,29;28,10;78,00;1009,60;0,00;0,00
09/01/2023 22:00;14,93;43,46;19,61;86,29;20,11;37;11;0,5;2,99;208,35;28,10;77,60;1009,90;0,00;0,00
09/01/2023 23:00;14,18;22,80;10,96;45,92;23,97;37;11;0,4;3,30;211,69;27,90;77,20;1010,00;0,00;0,00
10/01/2023 00:00;15,14;15,34;9,47;32,99;26,68;34;8;0,4;3,70;210,65;27,80;77,50;1009,70;0,00;0,00
10/01/2023 01:00;15,04;2,10;3,70;6,94;32,76;29;7;0,4;3,65;211,91;27,60;78,50;1009,00;0,00;0,00
10/01/2023 02:00;13,55;0,97;2,22;3,72;32,44;33;12;0,4;3,67;212,84;27,60;78,60;1008,30;0,00;0,00
10/01/2023 03:00;13,57;0,74;1,82;2,95;33,97;32;11;0,4;3,74;212,61;27,60;80,40;1008,00;0,00;0,00
10/01/2023 04:00;13,73;0,53;1,88;2,69;36,62;26;11;0,4;3,65;211,72;27,00;85,50;1007,80;0,00;0,00
10/01/2023 05:00;13,86;4,99;4,76;12,41;35,41;27;16;0,4;3,73;210,79;27,30;81,70;1008,00;0,00;0,00
10/01/2023 06:00;13,23;28,64;14,72;58,63;26,66;38;6;0,4;4,03;207,56;27,50;80,90;1008,40;7,00;0,00
10/01/2023 07:00;14,44;69,76;20,94;127,89;20,13;30;13;0,5;3,66;210,43;27,60;80,80;1009,00;125,00;0,00
10/01/2023 08:00;14,65;65,20;17,58;117,58;23,36;33;11;0,5;4,10;214,44;28,60;75,20;1009,40;382,00;0,00
10/01/2023 09:00;15,33;85,26;26,17;156,91;19,95;39;13;0,5;3,71;226,30;29,10;73,40;1009,80;473,00;0,00
10/01/2023 10:00;15,06;50,78;17,54;95,42;23,60;33;8;0,4;4,21;218,94;29,50;72,00;1010,00;625,00;0,00
10/01/2023 11:00;14,33;37,52;16,37;73,92;25,78;27;12;0,4;4,20;229,85;29,70;69,90;1010,00;745,00;0,00
10/01/2023 12:00;14,28;41,86;17,39;81,57;27,32;31;10;0,4;4,22;239,84;29,90;68,60;1009,60;766,00;0,00
10/01/2023 13:00;14,04;35,49;17,03;71,47;32,27;32;12;0,4;4,00;240,43;30,00;67,90;1009,20;539,00;0,00
10/01/2023 14:00;16,03;28,63;13,44;57,34;26,25;31;12;0,4;4,22;234,85;29,80;67,80;1008,20;687,00;0,00
10/01/2023 15:00;16,92;31,35;11,96;60,04;23,01;30;16;0,4;3,79;238,87;29,90;68,40;1007,80;495,00;0,00
10/01/2023 16:00;15,72;58,01;14,57;103,50;20,79;35;13;0,5;3,94;234,49;29,60;71,00;1007,80;255,00;0,00
10/01/2023 17:00;14,38;51,43;20,77;99,71;22,62;32;22;0,5;3,74;218,44;29,20;72,70;1007,90;152,00;0,00
10/01/2023 18:00;17,34;93,37;28,12;171,29;21,28;45;9;0,5;3,18;220,28;28,80;74,70;1008,10;16,00;0,00
10/01/2023 19:00;16,56;74,83;23,33;138,02;17,16;36;14;0,5;3,11;210,37;28,60;75,70;1008,00;0,00;0,00
10/01/2023 20:00;16,19;48,98;20,00;95,12;21,19;35;10;0,5;3,53;206,59;28,50;75,70;1008,10;0,00;0,00